TimeHST,TemperatureF,Dew PointF,Humidity,Sea Level PressureIn,VisibilityMPH,Wind Direction,Wind SpeedMPH,Gust SpeedMPH,PrecipitationIn,Events,Conditions,WindDirDegrees,DateUTC
12:53 AM,73.0,68.0,84,30.02,10.0,SW,5.8,-,N/A,,Mostly Cloudy,220,2013-11-17 10:53:00
1:53 AM,73.0,68.0,84,30.00,10.0,SW,5.8,-,N/A,,Overcast,230,2013-11-17 11:53:00
2:53 AM,72.0,66.9,84,29.99,10.0,SW,5.8,-,N/A,,Scattered Clouds,230,2013-11-17 12:53:00
3:53 AM,72.0,66.0,81,29.98,10.0,SSW,5.8,-,N/A,,Partly Cloudy,210,2013-11-17 13:53:00
4:53 AM,71.1,66.9,87,29.98,10.0,SW,5.8,-,N/A,,Scattered Clouds,220,2013-11-17 14:53:00
5:53 AM,71.1,66.0,84,29.99,10.0,SSW,4.6,-,N/A,,Scattered Clouds,210,2013-11-17 15:53:00
6:53 AM,71.1,66.9,87,29.99,10.0,WSW,9.2,-,N/A,,Mostly Cloudy,240,2013-11-17 16:53:00
7:53 AM,73.9,68.0,82,29.99,10.0,SW,4.6,-,N/A,,Mostly Cloudy,220,2013-11-17 17:53:00
8:53 AM,78.1,70.0,76,30.00,10.0,SSW,5.8,-,N/A,,Mostly Cloudy,210,2013-11-17 18:53:00
9:53 AM,81.0,70.0,69,30.00,10.0,SE,8.1,-,N/A,,Scattered Clouds,140,2013-11-17 19:53:00
10:53 AM,82.9,69.1,63,29.98,10.0,ESE,11.5,-,N/A,,Overcast,110,2013-11-17 20:53:00
11:53 AM,84.0,68.0,58,29.95,10.0,SE,12.7,-,N/A,,Scattered Clouds,130,2013-11-17 21:53:00
12:53 PM,84.0,71.1,65,29.92,10.0,SE,13.8,-,N/A,,Clear,130,2013-11-17 22:53:00
1:53 PM,84.0,68.0,58,29.90,10.0,ESE,16.1,-,N/A,,Partly Cloudy,120,2013-11-17 23:53:00
2:53 PM,81.0,70.0,69,29.91,10.0,East,12.7,-,N/A,,Mostly Cloudy,100,2013-11-18 00:53:00
3:53 PM,80.1,70.0,71,29.91,10.0,ESE,9.2,-,N/A,,Mostly Cloudy,110,2013-11-18 01:53:00
4:53 PM,79.0,69.1,72,29.93,10.0,SE,5.8,-,N/A,,Mostly Cloudy,140,2013-11-18 02:53:00
5:53 PM,77.0,69.1,76,29.94,10.0,SSE,3.5,-,N/A,,Mostly Cloudy,160,2013-11-18 03:53:00
6:53 PM,73.9,70.0,87,29.96,10.0,SSW,3.5,-,0.00,,Scattered Clouds,200,2013-11-18 04:53:00
7:53 PM,73.9,70.0,87,29.98,10.0,SSW,4.6,-,N/A,,Overcast,200,2013-11-18 05:53:00
8:53 PM,75.0,70.0,84,29.99,10.0,SW,3.5,-,N/A,,Overcast,220,2013-11-18 06:53:00
9:53 PM,75.0,70.0,84,29.99,10.0,SSW,4.6,-,N/A,,Overcast,200,2013-11-18 07:53:00
10:53 PM,75.0,70.0,84,29.99,10.0,SSW,4.6,-,N/A,,Overcast,210,2013-11-18 08:53:00
11:53 PM,73.9,70.0,87,29.98,10.0,SSW,4.6,-,N/A,,Mostly Cloudy,200,2013-11-18 09:53:00